WTL43D LMML-EDDG

Flight info

Callsign WTL43D
Flight time 2h 38m
Altitude 36000
Route GZO M622 SOPIR DCT ADEXI DCT GISPA DCT ABREG DCT LOKTA DCT TEDGO DCT HAREM DCT LOHRE Z850 HMM HMM1A
Aircraft A320/M-SDE2E3FGHIJ1RWXYZ/HB1

Departure

Time 2026-04-26 16:21
Airport Malta International Airport (LMML)

Arrival

Time 2026-04-26 19:00
Airport Münster Osnabrück Airport (EDDG)
Time Latitude Longitude Altitude Speed Heading
2026-04-26 15:25 35.84908 14.49396 246 ft 0 kts 360°
2026-04-26 16:14 35.84916 14.49390 247 ft 1 kts 304°
2026-04-26 16:15 35.84912 14.49371 247 ft 3 kts 237°
2026-04-26 16:15 35.84901 14.49336 247 ft 5 kts 270°
2026-04-26 16:15 35.84919 14.49288 247 ft 7 kts 301°
2026-04-26 16:16 35.84911 14.49155 251 ft 7 kts 236°
2026-04-26 16:16 35.84914 14.49093 251 ft 8 kts 302°
2026-04-26 16:16 35.84948 14.49031 252 ft 8 kts 303°
2026-04-26 16:16 35.84977 14.48968 253 ft 8 kts 291°
2026-04-26 16:17 35.84995 14.48893 255 ft 9 kts 285°
2026-04-26 16:17 35.85011 14.48823 258 ft 8 kts 284°
2026-04-26 16:17 35.85026 14.48751 261 ft 8 kts 285°
2026-04-26 16:17 35.85054 14.48662 261 ft 13 kts 294°
2026-04-26 16:18 35.85107 14.48551 261 ft 16 kts 307°
2026-04-26 16:18 35.85283 14.48325 264 ft 19 kts 314°
2026-04-26 16:19 35.85495 14.48100 264 ft 20 kts 332°
2026-04-26 16:19 35.85618 14.48037 266 ft 15 kts 341°
2026-04-26 16:19 35.85658 14.47932 268 ft 9 kts 226°
2026-04-26 16:20 35.85609 14.47925 265 ft 8 kts 140°
2026-04-26 16:20 35.85596 14.47940 265 ft 5 kts 135°
2026-04-26 16:20 35.85426 14.48150 264 ft 70 kts 134°
2026-04-26 16:21 35.84924 14.48774 260 ft 132 kts 134°
2026-04-26 16:21 35.84155 14.49731 314 ft 176 kts 137°
2026-04-26 16:21 35.83280 14.50791 862 ft 179 kts 139°
2026-04-26 16:21 35.82225 14.51577 1426 ft 183 kts 171°
2026-04-26 16:22 35.80965 14.51297 1822 ft 194 kts 216°
2026-04-26 16:22 35.80129 14.49959 2224 ft 208 kts 243°
2026-04-26 16:22 35.79481 14.48256 2570 ft 231 kts 245°
2026-04-26 16:22 35.78752 14.46410 3020 ft 249 kts 243°
2026-04-26 16:23 35.77891 14.44499 3532 ft 265 kts 240°
2026-04-26 16:23 35.77014 14.42495 4277 ft 269 kts 252°
2026-04-26 16:23 35.76887 14.40240 5084 ft 268 kts 284°
2026-04-26 16:23 35.77548 14.38150 5890 ft 268 kts 296°
2026-04-26 16:24 35.78486 14.36170 6628 ft 272 kts 314°
2026-04-26 16:24 35.80036 14.34872 7385 ft 273 kts 334°
2026-04-26 16:24 35.81770 14.33925 8157 ft 275 kts 336°
2026-04-26 16:24 35.83507 14.32994 8906 ft 277 kts 335°
2026-04-26 16:25 35.85261 14.32000 9642 ft 280 kts 334°
2026-04-26 16:25 35.87016 14.30961 10386 ft 282 kts 333°
2026-04-26 16:25 35.88805 14.29871 10870 ft 293 kts 332°
2026-04-26 16:25 35.90683 14.28706 11193 ft 310 kts 332°
2026-04-26 16:26 35.92617 14.27497 11699 ft 319 kts 332°
2026-04-26 16:26 35.94621 14.26243 12384 ft 321 kts 332°
2026-04-26 16:26 35.96610 14.24995 13068 ft 323 kts 331°
2026-04-26 16:26 35.98595 14.23748 13731 ft 325 kts 331°
2026-04-26 16:27 36.00613 14.22478 14358 ft 327 kts 331°
2026-04-26 16:27 36.02639 14.21167 14953 ft 330 kts 329°
2026-04-26 16:27 36.04601 14.19729 15535 ft 332 kts 326°
2026-04-26 16:27 36.06531 14.18107 16097 ft 335 kts 323°
2026-04-26 16:28 36.08430 14.16438 16635 ft 338 kts 322°
2026-04-26 16:28 36.10344 14.14744 17153 ft 342 kts 322°
2026-04-26 16:28 36.12284 14.13023 17650 ft 345 kts 322°
2026-04-26 16:28 36.14243 14.11286 18158 ft 349 kts 322°
2026-04-26 16:29 36.16219 14.09533 18671 ft 351 kts 322°
2026-04-26 16:29 36.18209 14.07767 19183 ft 353 kts 322°
2026-04-26 16:29 36.20216 14.05985 19687 ft 356 kts 322°
2026-04-26 16:29 36.22201 14.04221 20177 ft 358 kts 322°
2026-04-26 16:30 36.24232 14.02417 20673 ft 359 kts 322°
2026-04-26 16:30 36.26266 14.00610 21167 ft 361 kts 322°
2026-04-26 16:30 36.28317 13.98784 21642 ft 363 kts 322°
2026-04-26 16:30 36.30353 13.96972 22093 ft 365 kts 322°
2026-04-26 16:31 36.32406 13.95141 22535 ft 367 kts 322°
2026-04-26 16:31 36.34498 13.93275 22979 ft 369 kts 322°
2026-04-26 16:31 36.36569 13.91426 23414 ft 370 kts 322°
2026-04-26 16:31 36.38653 13.89564 23839 ft 372 kts 322°
2026-04-26 16:32 36.40754 13.87684 24242 ft 374 kts 321°
2026-04-26 16:32 36.42171 13.86417 24513 ft 376 kts 321°
2026-04-26 16:32 36.45014 13.83869 25050 ft 378 kts 322°
2026-04-26 16:32 36.47141 13.81965 25440 ft 380 kts 321°
2026-04-26 16:33 36.49284 13.80043 25816 ft 381 kts 321°
2026-04-26 16:33 36.51444 13.78110 26175 ft 383 kts 321°
2026-04-26 16:33 36.53611 13.76174 26537 ft 385 kts 321°
2026-04-26 16:33 36.55787 13.74226 26890 ft 387 kts 321°
2026-04-26 16:34 36.57969 13.72269 27237 ft 388 kts 321°
2026-04-26 16:34 36.60131 13.70328 27576 ft 389 kts 321°
2026-04-26 16:34 36.62333 13.68350 27901 ft 391 kts 321°
2026-04-26 16:34 36.64540 13.66365 28213 ft 393 kts 321°
2026-04-26 16:35 36.66758 13.64368 28519 ft 394 kts 321°
2026-04-26 16:35 36.68986 13.62359 28813 ft 396 kts 321°
2026-04-26 16:35 36.71223 13.60341 29108 ft 397 kts 321°
2026-04-26 16:35 36.73431 13.58348 29405 ft 398 kts 321°
2026-04-26 16:36 36.75678 13.56319 29670 ft 400 kts 321°
2026-04-26 16:36 36.77936 13.54277 29924 ft 401 kts 321°
2026-04-26 16:36 36.80196 13.52231 30171 ft 403 kts 321°
2026-04-26 16:36 36.82464 13.50177 30437 ft 404 kts 321°
2026-04-26 16:37 36.84731 13.48125 30698 ft 404 kts 321°
2026-04-26 16:37 36.87003 13.46066 30945 ft 405 kts 321°
2026-04-26 16:37 36.89286 13.43994 31167 ft 407 kts 321°
2026-04-26 16:37 36.91570 13.41920 31391 ft 407 kts 321°
2026-04-26 16:38 36.93860 13.39840 31612 ft 409 kts 321°
2026-04-26 16:38 36.96158 13.37749 31802 ft 410 kts 321°
2026-04-26 16:38 36.98493 13.35624 31998 ft 411 kts 321°
2026-04-26 16:38 37.00796 13.33525 32219 ft 411 kts 320°
2026-04-26 16:39 37.03093 13.31431 32501 ft 410 kts 320°
2026-04-26 16:39 37.05376 13.29347 32772 ft 409 kts 320°
2026-04-26 16:39 37.07685 13.27239 33055 ft 408 kts 320°
2026-04-26 16:39 37.09978 13.25143 33334 ft 406 kts 320°
2026-04-26 16:40 37.12249 13.23065 33613 ft 405 kts 320°
2026-04-26 16:40 37.14504 13.21001 33889 ft 403 kts 320°
2026-04-26 16:40 37.16752 13.18942 34139 ft 402 kts 320°
2026-04-26 16:40 37.19025 13.16855 34338 ft 402 kts 320°
2026-04-26 16:41 37.21262 13.14797 34501 ft 402 kts 320°
2026-04-26 16:41 37.23510 13.12731 34600 ft 404 kts 320°
2026-04-26 16:41 37.28074 13.08568 34805 ft 408 kts 321°
2026-04-26 16:42 37.30459 13.06619 34920 ft 411 kts 324°
2026-04-26 16:42 37.32957 13.04810 35041 ft 414 kts 327°
2026-04-26 16:42 37.35531 13.03172 35158 ft 416 kts 330°
2026-04-26 16:42 37.38160 13.01718 35258 ft 419 kts 333°
2026-04-26 16:43 37.43702 12.99316 35438 ft 425 kts 339°
2026-04-26 16:43 37.46574 12.98284 35542 ft 426 kts 340°
2026-04-26 16:43 37.49386 12.97291 35653 ft 426 kts 340°
2026-04-26 16:44 37.55121 12.95265 35821 ft 428 kts 340°
2026-04-26 16:44 37.60864 12.93229 35939 ft 431 kts 340°
2026-04-26 16:45 37.66643 12.91173 36117 ft 431 kts 340°
2026-04-26 16:45 37.72404 12.89117 36120 ft 432 kts 340°
2026-04-26 16:46 37.78186 12.87053 36122 ft 434 kts 340°
2026-04-26 16:46 37.83996 12.84974 36126 ft 435 kts 340°
2026-04-26 16:47 37.89836 12.82880 36130 ft 436 kts 340°
2026-04-26 16:47 37.95640 12.80796 36133 ft 436 kts 340°
2026-04-26 16:48 38.01493 12.78693 36136 ft 436 kts 341°
2026-04-26 16:48 38.07336 12.76588 36141 ft 436 kts 341°
2026-04-26 16:49 38.13164 12.74486 36439 ft 437 kts 341°
2026-04-26 16:49 38.16054 12.73441 36245 ft 435 kts 341°
2026-04-26 16:49 38.18973 12.72386 36177 ft 434 kts 341°
2026-04-26 16:50 38.24778 12.70283 36142 ft 435 kts 341°
2026-04-26 16:50 38.30592 12.68174 36141 ft 435 kts 341°
2026-04-26 16:51 38.36404 12.66064 36140 ft 436 kts 341°
2026-04-26 16:51 38.42250 12.63937 36142 ft 436 kts 341°
2026-04-26 16:52 38.47089 12.62174 36141 ft 436 kts 341°
2026-04-26 16:52 38.53898 12.59687 36143 ft 436 kts 341°
2026-04-26 16:53 38.59703 12.57565 36147 ft 436 kts 341°
2026-04-26 16:53 38.65544 12.55427 36148 ft 437 kts 341°
2026-04-26 16:54 38.71368 12.53290 36148 ft 436 kts 341°
2026-04-26 16:54 38.77216 12.51139 36149 ft 437 kts 341°
2026-04-26 16:55 38.83044 12.48992 36155 ft 437 kts 341°
2026-04-26 16:55 38.88865 12.46846 36157 ft 437 kts 341°
2026-04-26 16:56 38.97651 12.43599 36158 ft 438 kts 342°
2026-04-26 16:57 39.03499 12.41433 36162 ft 438 kts 342°
2026-04-26 16:57 39.12240 12.38189 36165 ft 438 kts 342°
2026-04-26 16:58 39.17107 12.36379 36164 ft 438 kts 342°
2026-04-26 16:59 39.26865 12.32742 36164 ft 438 kts 341°
2026-04-26 17:00 39.38521 12.28383 36167 ft 438 kts 342°
2026-04-26 17:00 39.47295 12.25091 36167 ft 437 kts 342°
2026-04-26 17:01 39.53144 12.22892 36161 ft 438 kts 342°
2026-04-26 17:01 39.58987 12.20693 36162 ft 438 kts 342°
2026-04-26 17:02 39.64838 12.18486 36163 ft 438 kts 342°
2026-04-26 17:02 39.70667 12.16284 36163 ft 439 kts 342°
2026-04-26 17:03 39.76532 12.14062 36163 ft 439 kts 342°
2026-04-26 17:03 39.82394 12.11840 36162 ft 440 kts 342°
2026-04-26 17:04 39.88264 12.09611 36164 ft 439 kts 342°
2026-04-26 17:04 39.94117 12.07383 36161 ft 440 kts 342°
2026-04-26 17:05 39.99974 12.05151 36162 ft 440 kts 342°
2026-04-26 17:05 40.05861 12.02903 36155 ft 441 kts 342°
2026-04-26 17:06 40.11731 12.00658 36163 ft 441 kts 342°
2026-04-26 17:06 40.17603 11.98408 36168 ft 440 kts 342°
2026-04-26 17:07 40.23473 11.96152 36161 ft 440 kts 342°
2026-04-26 17:07 40.29329 11.93898 36157 ft 440 kts 342°
2026-04-26 17:08 40.35185 11.91643 36149 ft 439 kts 342°
2026-04-26 17:08 40.41057 11.89376 36156 ft 439 kts 342°
2026-04-26 17:09 40.45947 11.87485 36140 ft 439 kts 342°
2026-04-26 17:09 40.52747 11.84849 36137 ft 440 kts 342°
2026-04-26 17:10 40.58616 11.82572 36135 ft 440 kts 342°
2026-04-26 17:10 40.64485 11.80289 36138 ft 439 kts 342°
2026-04-26 17:11 40.70340 11.78007 36135 ft 438 kts 342°
2026-04-26 17:11 40.76141 11.75742 36130 ft 438 kts 342°
2026-04-26 17:12 40.84923 11.72306 36127 ft 438 kts 342°
2026-04-26 17:13 40.93643 11.68886 36133 ft 438 kts 342°
2026-04-26 17:14 41.02411 11.65436 36133 ft 437 kts 342°
2026-04-26 17:14 41.11105 11.62005 36136 ft 437 kts 342°
2026-04-26 17:15 41.19845 11.58546 36136 ft 437 kts 342°
2026-04-26 17:16 41.25683 11.56232 36140 ft 437 kts 342°
2026-04-26 17:16 41.31480 11.53929 36136 ft 437 kts 342°
2026-04-26 17:17 41.37325 11.51602 36134 ft 437 kts 342°
2026-04-26 17:17 41.43124 11.49289 36138 ft 437 kts 342°
2026-04-26 17:18 41.48962 11.46957 36132 ft 437 kts 342°
2026-04-26 17:18 41.51844 11.45803 35908 ft 437 kts 342°
2026-04-26 17:18 41.54747 11.44639 36035 ft 437 kts 342°
2026-04-26 17:19 41.63474 11.41135 36122 ft 439 kts 342°
2026-04-26 17:19 41.69320 11.38781 36394 ft 439 kts 342°
2026-04-26 17:20 41.72234 11.37604 36210 ft 437 kts 342°
2026-04-26 17:20 41.74177 11.36819 36169 ft 437 kts 342°
2026-04-26 17:20 41.80948 11.34086 36130 ft 437 kts 342°
2026-04-26 17:21 41.83872 11.32983 35949 ft 436 kts 343°
2026-04-26 17:21 41.86800 11.31917 36051 ft 437 kts 343°
2026-04-26 17:21 41.92669 11.29781 36110 ft 439 kts 343°
2026-04-26 17:22 41.98548 11.27620 36115 ft 439 kts 343°
2026-04-26 17:22 42.04443 11.25441 36124 ft 438 kts 342°
2026-04-26 17:23 42.10302 11.23268 36122 ft 438 kts 342°
2026-04-26 17:23 42.16167 11.21086 36121 ft 438 kts 342°
2026-04-26 17:24 42.21990 11.18916 36119 ft 438 kts 342°
2026-04-26 17:24 42.27870 11.16722 36122 ft 438 kts 342°
2026-04-26 17:25 42.33740 11.14527 36119 ft 438 kts 342°
2026-04-26 17:25 42.39574 11.12341 36125 ft 438 kts 342°
2026-04-26 17:26 42.45456 11.10133 36119 ft 437 kts 342°
2026-04-26 17:26 42.51295 11.07935 36122 ft 436 kts 342°
2026-04-26 17:27 42.57110 11.05744 36120 ft 436 kts 342°
2026-04-26 17:27 42.62949 11.03539 36122 ft 435 kts 342°
2026-04-26 17:28 42.68771 11.01335 36118 ft 435 kts 342°
2026-04-26 17:28 42.74574 10.99134 36122 ft 435 kts 342°
2026-04-26 17:29 42.79431 10.97290 36119 ft 435 kts 343°
2026-04-26 17:29 42.86218 10.94708 36123 ft 435 kts 342°
2026-04-26 17:30 42.92016 10.92496 36122 ft 434 kts 342°
2026-04-26 17:30 42.97847 10.90268 36123 ft 434 kts 342°
2026-04-26 17:31 43.03646 10.88048 36122 ft 434 kts 342°
2026-04-26 17:31 43.09417 10.85834 36129 ft 434 kts 342°
2026-04-26 17:32 43.15224 10.83602 36133 ft 433 kts 342°
2026-04-26 17:32 43.21011 10.81373 36131 ft 433 kts 342°
2026-04-26 17:33 43.26798 10.79140 36139 ft 433 kts 342°
2026-04-26 17:34 43.35490 10.75779 36138 ft 434 kts 342°
2026-04-26 17:34 43.41281 10.73533 36129 ft 433 kts 342°
2026-04-26 17:35 43.47071 10.71283 36132 ft 433 kts 342°
2026-04-26 17:35 43.52877 10.69023 36139 ft 433 kts 342°
2026-04-26 17:36 43.58640 10.66774 36134 ft 433 kts 342°
2026-04-26 17:36 43.64424 10.64514 36142 ft 433 kts 342°
2026-04-26 17:37 43.70233 10.62237 36142 ft 433 kts 342°
2026-04-26 17:37 43.76009 10.59970 36143 ft 434 kts 342°
2026-04-26 17:38 43.84703 10.56550 36149 ft 434 kts 342°
2026-04-26 17:38 43.90521 10.54255 36152 ft 434 kts 342°
2026-04-26 17:39 43.96273 10.51980 36142 ft 434 kts 342°
2026-04-26 17:39 44.02078 10.49681 36145 ft 434 kts 342°
2026-04-26 17:40 44.06905 10.47766 36153 ft 434 kts 342°
2026-04-26 17:40 44.13683 10.45072 36153 ft 435 kts 342°
2026-04-26 17:41 44.19497 10.42753 36162 ft 435 kts 342°
2026-04-26 17:41 44.25290 10.40438 36175 ft 435 kts 342°
2026-04-26 17:42 44.31074 10.38122 36172 ft 435 kts 342°
2026-04-26 17:42 44.36860 10.35803 36169 ft 434 kts 342°
2026-04-26 17:43 44.42649 10.33476 36159 ft 434 kts 341°
2026-04-26 17:43 44.48461 10.31136 36149 ft 435 kts 341°
2026-04-26 17:44 44.54264 10.28795 36139 ft 435 kts 341°
2026-04-26 17:44 44.60066 10.26448 36127 ft 435 kts 341°
2026-04-26 17:45 44.65850 10.24105 36116 ft 435 kts 341°
2026-04-26 17:45 44.71679 10.21740 36105 ft 435 kts 341°
2026-04-26 17:46 44.77480 10.19379 36092 ft 435 kts 341°
2026-04-26 17:46 44.83266 10.17020 36093 ft 436 kts 341°
2026-04-26 17:47 44.88110 10.15042 36085 ft 436 kts 341°
2026-04-26 17:47 44.94901 10.12264 36077 ft 436 kts 341°
2026-04-26 17:48 45.00697 10.09888 36067 ft 436 kts 341°
2026-04-26 17:48 45.06507 10.07500 36066 ft 435 kts 341°
2026-04-26 17:49 45.12331 10.05099 36066 ft 436 kts 341°
2026-04-26 17:49 45.18131 10.02705 36065 ft 436 kts 341°
2026-04-26 17:50 45.23933 10.00305 36077 ft 437 kts 341°
2026-04-26 17:50 45.29764 9.97887 36083 ft 437 kts 341°
2026-04-26 17:51 45.35590 9.95464 36091 ft 437 kts 340°
2026-04-26 17:51 45.41413 9.93038 36090 ft 437 kts 340°
2026-04-26 17:52 45.47223 9.90614 36094 ft 437 kts 340°
2026-04-26 17:52 45.53068 9.88170 36102 ft 437 kts 340°
2026-04-26 17:53 45.58905 9.85723 36112 ft 437 kts 340°
2026-04-26 17:54 45.67595 9.82071 36125 ft 437 kts 340°
2026-04-26 17:54 45.73428 9.79612 36131 ft 437 kts 340°
2026-04-26 17:55 45.79234 9.77159 36142 ft 437 kts 340°
2026-04-26 17:55 45.85052 9.74695 36150 ft 437 kts 340°
2026-04-26 17:56 45.90863 9.72229 36163 ft 438 kts 340°
2026-04-26 17:57 46.02496 9.67278 36196 ft 437 kts 340°
2026-04-26 17:57 46.08320 9.64790 36211 ft 436 kts 340°
2026-04-26 17:58 46.19919 9.59808 36234 ft 436 kts 340°
2026-04-26 17:59 46.28592 9.56139 36236 ft 437 kts 343°
2026-04-26 17:59 46.34573 9.54428 36237 ft 439 kts 349°
2026-04-26 18:00 46.40611 9.53251 36238 ft 439 kts 349°
2026-04-26 18:00 46.46647 9.52106 36235 ft 438 kts 350°
2026-04-26 18:01 46.52655 9.50956 36245 ft 438 kts 350°
2026-04-26 18:01 46.58705 9.49792 36242 ft 437 kts 349°
2026-04-26 18:02 46.63701 9.48826 36233 ft 437 kts 349°
2026-04-26 18:02 46.70721 9.47466 36232 ft 437 kts 349°
2026-04-26 18:03 46.76714 9.46302 36234 ft 437 kts 349°
2026-04-26 18:03 46.82744 9.45128 36238 ft 437 kts 350°
2026-04-26 18:04 46.88738 9.43957 36251 ft 437 kts 350°
2026-04-26 18:05 46.97763 9.42190 36257 ft 436 kts 350°
2026-04-26 18:05 47.03760 9.41012 36249 ft 436 kts 350°
2026-04-26 18:06 47.09739 9.39835 36250 ft 436 kts 350°
2026-04-26 18:06 47.15743 9.38649 36242 ft 435 kts 350°
2026-04-26 18:07 47.21734 9.37464 36245 ft 435 kts 350°
2026-04-26 18:07 47.27721 9.36277 36229 ft 435 kts 350°
2026-04-26 18:08 47.33673 9.35095 36215 ft 435 kts 350°
2026-04-26 18:08 47.39653 9.33905 36201 ft 434 kts 349°
2026-04-26 18:09 47.45597 9.32718 36206 ft 433 kts 349°
2026-04-26 18:09 47.51569 9.31524 36208 ft 433 kts 349°
2026-04-26 18:10 47.57541 9.30326 36203 ft 433 kts 349°
2026-04-26 18:10 47.63491 9.29129 36207 ft 433 kts 350°
2026-04-26 18:11 47.69427 9.27933 36203 ft 433 kts 350°
2026-04-26 18:11 47.75401 9.26728 36210 ft 432 kts 350°
2026-04-26 18:12 47.81327 9.25530 36207 ft 432 kts 350°
2026-04-26 18:12 47.87288 9.24319 36213 ft 432 kts 349°
2026-04-26 18:13 47.93198 9.23214 36207 ft 432 kts 352°
2026-04-26 18:13 47.99205 9.22519 36201 ft 432 kts 353°
2026-04-26 18:14 48.05199 9.21812 36211 ft 432 kts 353°
2026-04-26 18:14 48.11145 9.21072 36214 ft 432 kts 353°
2026-04-26 18:15 48.17107 9.20323 36214 ft 432 kts 353°
2026-04-26 18:15 48.23090 9.19592 36215 ft 432 kts 353°
2026-04-26 18:16 48.29036 9.18864 36217 ft 431 kts 353°
2026-04-26 18:16 48.38012 9.17753 36218 ft 431 kts 353°
2026-04-26 18:17 48.43958 9.17012 36218 ft 431 kts 353°
2026-04-26 18:17 48.49926 9.16266 36213 ft 431 kts 353°
2026-04-26 18:18 48.55852 9.15521 36219 ft 431 kts 353°
2026-04-26 18:18 48.61814 9.14774 36222 ft 430 kts 353°
2026-04-26 18:19 48.67759 9.14037 36224 ft 430 kts 353°
2026-04-26 18:19 48.73736 9.13293 36228 ft 430 kts 353°
2026-04-26 18:20 48.79471 9.12574 36227 ft 430 kts 353°
2026-04-26 18:20 48.84434 9.11949 36228 ft 430 kts 353°
2026-04-26 18:21 48.91376 9.11070 36224 ft 430 kts 353°
2026-04-26 18:21 48.97306 9.10318 36218 ft 429 kts 353°
2026-04-26 18:22 49.03241 9.09563 36216 ft 429 kts 353°
2026-04-26 18:22 49.09160 9.08809 36217 ft 429 kts 353°
2026-04-26 18:23 49.15100 9.08050 36219 ft 429 kts 353°
2026-04-26 18:23 49.21022 9.07291 36222 ft 429 kts 353°
2026-04-26 18:24 49.26962 9.06527 36223 ft 428 kts 353°
2026-04-26 18:24 49.32858 9.05767 36222 ft 428 kts 353°
2026-04-26 18:25 49.38770 9.05003 36221 ft 428 kts 353°
2026-04-26 18:25 49.44665 9.04238 36221 ft 428 kts 353°
2026-04-26 18:26 49.50580 9.03469 36225 ft 427 kts 353°
2026-04-26 18:26 49.56495 9.02696 36227 ft 427 kts 353°
2026-04-26 18:27 49.62384 9.01932 36227 ft 427 kts 353°
2026-04-26 18:27 49.68274 9.01169 36229 ft 427 kts 353°
2026-04-26 18:28 49.74193 9.00394 36230 ft 426 kts 353°
2026-04-26 18:28 49.80057 8.99624 36231 ft 426 kts 353°
2026-04-26 18:29 49.85945 8.98846 36240 ft 426 kts 353°
2026-04-26 18:29 49.91845 8.98066 36252 ft 425 kts 353°
2026-04-26 18:30 49.97689 8.97288 36253 ft 425 kts 353°
2026-04-26 18:30 50.03603 8.96502 36256 ft 425 kts 353°
2026-04-26 18:31 50.09450 8.95733 36263 ft 425 kts 353°
2026-04-26 18:31 50.15326 8.94955 36263 ft 425 kts 353°
2026-04-26 18:32 50.21184 8.94171 36264 ft 424 kts 353°
2026-04-26 18:32 50.27052 8.93382 36263 ft 423 kts 353°
2026-04-26 18:33 50.32883 8.92598 36265 ft 423 kts 353°
2026-04-26 18:33 50.38769 8.91813 36265 ft 424 kts 353°
2026-04-26 18:34 50.44599 8.90981 36267 ft 422 kts 350°
2026-04-26 18:34 50.50272 8.89010 36269 ft 419 kts 340°
2026-04-26 18:35 50.52996 8.87459 36119 ft 418 kts 336°
2026-04-26 18:35 50.55637 8.85528 35892 ft 416 kts 331°
2026-04-26 18:35 50.58098 8.83299 35669 ft 412 kts 327°
2026-04-26 18:35 50.60454 8.80731 35443 ft 409 kts 323°
2026-04-26 18:36 50.62722 8.78044 35218 ft 407 kts 322°
2026-04-26 18:36 50.64945 8.75366 34835 ft 406 kts 322°
2026-04-26 18:36 50.67186 8.72659 34100 ft 409 kts 322°
2026-04-26 18:36 50.69447 8.69924 33220 ft 414 kts 323°
2026-04-26 18:37 50.71718 8.67188 32329 ft 417 kts 324°
2026-04-26 18:37 50.74160 8.64803 31632 ft 416 kts 332°
2026-04-26 18:37 50.76795 8.63002 30911 ft 416 kts 340°
2026-04-26 18:37 50.79569 8.61719 30171 ft 416 kts 344°
2026-04-26 18:38 50.82357 8.60606 29437 ft 414 kts 345°
2026-04-26 18:38 50.85118 8.59523 28715 ft 413 kts 345°
2026-04-26 18:38 50.87906 8.58431 27991 ft 410 kts 345°
2026-04-26 18:38 50.90641 8.57353 27282 ft 408 kts 345°
2026-04-26 18:39 50.93368 8.56273 26637 ft 404 kts 345°
2026-04-26 18:39 50.96075 8.55199 26075 ft 398 kts 345°
2026-04-26 18:39 50.98716 8.54148 25701 ft 388 kts 344°
2026-04-26 18:39 51.01295 8.53120 25434 ft 378 kts 344°
2026-04-26 18:40 51.03824 8.52109 25257 ft 376 kts 344°
2026-04-26 18:40 51.06383 8.51081 25251 ft 376 kts 344°
2026-04-26 18:40 51.08883 8.50078 25094 ft 371 kts 344°
2026-04-26 18:40 51.11371 8.49079 24533 ft 369 kts 344°
2026-04-26 18:41 51.13844 8.48083 23888 ft 368 kts 344°
2026-04-26 18:41 51.16297 8.47094 23316 ft 367 kts 344°
2026-04-26 18:41 51.18772 8.46097 22734 ft 366 kts 344°
2026-04-26 18:41 51.21225 8.45106 21848 ft 373 kts 344°
2026-04-26 18:42 51.23760 8.44081 21074 ft 376 kts 344°
2026-04-26 18:42 51.26249 8.43075 20515 ft 374 kts 344°
2026-04-26 18:42 51.28773 8.42055 19967 ft 371 kts 344°
2026-04-26 18:42 51.31255 8.41050 19423 ft 368 kts 344°
2026-04-26 18:43 51.33723 8.40049 18869 ft 365 kts 344°
2026-04-26 18:43 51.36153 8.39063 18324 ft 363 kts 344°
2026-04-26 18:43 51.38582 8.38075 17788 ft 361 kts 344°
2026-04-26 18:43 51.40982 8.37098 17271 ft 358 kts 344°
2026-04-26 18:44 51.43376 8.36122 16765 ft 355 kts 345°
2026-04-26 18:44 51.45775 8.35144 16351 ft 349 kts 345°
2026-04-26 18:44 51.48056 8.34214 16283 ft 335 kts 344°
2026-04-26 18:44 51.50312 8.33292 16285 ft 333 kts 344°
2026-04-26 18:45 51.52557 8.32373 16279 ft 333 kts 343°
2026-04-26 18:45 51.54784 8.31461 16046 ft 331 kts 344°
2026-04-26 18:45 51.57003 8.30549 15265 ft 339 kts 344°
2026-04-26 18:45 51.59298 8.29604 14550 ft 343 kts 344°
2026-04-26 18:46 51.61570 8.28671 13904 ft 335 kts 344°
2026-04-26 18:46 51.63805 8.27753 13017 ft 332 kts 344°
2026-04-26 18:46 51.66018 8.26843 12173 ft 328 kts 344°
2026-04-26 18:46 51.68208 8.25942 11670 ft 322 kts 344°
2026-04-26 18:47 51.70336 8.25064 11240 ft 317 kts 344°
2026-04-26 18:47 51.72447 8.24192 10816 ft 313 kts 344°
2026-04-26 18:47 51.74538 8.23328 10465 ft 306 kts 344°
2026-04-26 18:47 51.76560 8.22493 10383 ft 290 kts 344°
2026-04-26 18:48 51.78451 8.21710 10341 ft 276 kts 344°
2026-04-26 18:48 51.80280 8.20952 10297 ft 269 kts 344°
2026-04-26 18:48 51.82077 8.20205 10248 ft 267 kts 344°
2026-04-26 18:48 51.83869 8.19460 9871 ft 267 kts 344°
2026-04-26 18:49 51.85671 8.18708 9437 ft 267 kts 344°
2026-04-26 18:49 51.87454 8.17965 8976 ft 264 kts 345°
2026-04-26 18:49 51.89209 8.17234 8364 ft 263 kts 345°
2026-04-26 18:49 51.90984 8.16494 7909 ft 262 kts 345°
2026-04-26 18:50 51.92728 8.15767 7522 ft 260 kts 345°
2026-04-26 18:50 51.94478 8.15037 7161 ft 259 kts 345°
2026-04-26 18:50 51.96213 8.14313 6800 ft 258 kts 345°
2026-04-26 18:50 51.97936 8.13593 6457 ft 256 kts 345°
2026-04-26 18:51 51.99653 8.12875 6077 ft 256 kts 345°
2026-04-26 18:51 52.01378 8.12151 5675 ft 257 kts 345°
2026-04-26 18:51 52.03087 8.11435 5314 ft 256 kts 345°
2026-04-26 18:51 52.04800 8.10717 5006 ft 253 kts 345°
2026-04-26 18:52 52.06506 8.09999 4744 ft 249 kts 345°
2026-04-26 18:52 52.08158 8.09304 4486 ft 244 kts 346°
2026-04-26 18:52 52.09781 8.08622 4234 ft 240 kts 346°
2026-04-26 18:52 52.11381 8.07949 4014 ft 234 kts 346°
2026-04-26 18:53 52.12907 8.07307 3978 ft 221 kts 346°
2026-04-26 18:53 52.14348 8.06698 3968 ft 207 kts 346°
2026-04-26 18:53 52.15700 8.06127 3971 ft 194 kts 346°
2026-04-26 18:53 52.16943 8.05602 4031 ft 177 kts 346°
2026-04-26 18:54 52.18102 8.05112 3989 ft 170 kts 346°
2026-04-26 18:54 52.19233 8.04512 3971 ft 171 kts 330°
2026-04-26 18:54 52.20002 8.03084 3963 ft 174 kts 291°
2026-04-26 18:54 52.20112 8.01111 3990 ft 177 kts 266°
2026-04-26 18:55 52.19872 7.99143 3910 ft 178 kts 257°
2026-04-26 18:55 52.19536 7.97182 3679 ft 178 kts 255°
2026-04-26 18:55 52.19165 7.95260 3436 ft 178 kts 253°
2026-04-26 18:55 52.18770 7.93354 3190 ft 178 kts 253°
2026-04-26 18:56 52.18364 7.91456 2947 ft 178 kts 252°
2026-04-26 18:56 52.17957 7.89568 2704 ft 178 kts 252°
2026-04-26 18:56 52.17548 7.87671 2472 ft 178 kts 252°
2026-04-26 18:56 52.17140 7.85777 2222 ft 174 kts 252°
2026-04-26 18:57 52.16752 7.83963 1965 ft 164 kts 252°
2026-04-26 18:57 52.16510 7.82836 1828 ft 156 kts 252°
2026-04-26 18:57 52.16061 7.80728 1549 ft 142 kts 252°
2026-04-26 18:57 52.15737 7.79210 1372 ft 141 kts 252°
2026-04-26 18:58 52.15414 7.77705 1198 ft 141 kts 253°
2026-04-26 18:58 52.15099 7.76203 1006 ft 140 kts 252°
2026-04-26 18:58 52.14778 7.74705 815 ft 140 kts 253°
2026-04-26 18:58 52.14471 7.73217 623 ft 139 kts 252°
2026-04-26 18:59 52.14150 7.71753 444 ft 137 kts 252°
2026-04-26 18:59 52.13845 7.70286 260 ft 137 kts 252°
2026-04-26 18:59 52.13540 7.68854 163 ft 116 kts 251°
2026-04-26 18:59 52.13356 7.67974 160 ft 65 kts 251°
2026-04-26 19:00 52.13234 7.67399 164 ft 38 kts 252°
2026-04-26 19:00 52.13167 7.67093 161 ft 17 kts 245°
2026-04-26 19:00 52.13079 7.67066 159 ft 15 kts 150°
2026-04-26 19:00 52.13027 7.67198 160 ft 14 kts 95°
2026-04-26 19:01 52.13050 7.67353 160 ft 14 kts 71°
2026-04-26 19:01 52.13082 7.67513 160 ft 15 kts 72°
2026-04-26 19:01 52.13120 7.67686 159 ft 16 kts 70°
2026-04-26 19:01 52.13158 7.67863 160 ft 16 kts 72°
2026-04-26 19:02 52.13196 7.68046 159 ft 17 kts 71°
2026-04-26 19:02 52.13237 7.68234 159 ft 17 kts 71°
2026-04-26 19:02 52.13276 7.68424 160 ft 18 kts 71°
2026-04-26 19:02 52.13304 7.68555 159 ft 18 kts 71°
2026-04-26 19:03 52.13358 7.68809 163 ft 16 kts 71°
2026-04-26 19:03 52.13392 7.68976 163 ft 15 kts 72°
2026-04-26 19:03 52.13426 7.69135 163 ft 13 kts 71°
2026-04-26 19:03 52.13393 7.69245 163 ft 12 kts 162°
2026-04-26 19:04 52.13309 7.69287 163 ft 12 kts 162°
2026-04-26 19:04 52.13238 7.69348 163 ft 10 kts 111°
2026-04-26 19:04 52.13253 7.69460 163 ft 7 kts 75°
2026-04-26 19:04 52.13233 7.69480 163 ft 4 kts 194°
2026-04-26 19:05 52.13184 7.69454 163 ft 0 kts 196°